Regional Weather Roundup
Issued by NWS

Home | Current Version | Previous Version | Graphics & Text | Print | Product List | Glossary On
Versions: 1 2 3 4 5 6 7 8 9 10 11 12 13 14 15 16 17 18 19 20 21 22 23 24 25 26 27 28 29 30 31 32 33 34 35 36 37 38 39 40 41 42 43 44 45 46 47 48 49 50
000
ASUS43 KMKX 211421
RWRWI

WISCONSIN REGIONAL WEATHER ROUNDUP
NATIONAL WEATHER SERVICE MILWAUKEE/SULLIVAN WI
900 AM CDT THU AUG 21 2014

NOTE: "FAIR" INDICATES FEW OR NO CLOUDS BELOW 12,000 FEET WITH NO
SIGNIFICANT WEATHER AND/OR OBSTRUCTIONS TO VISIBILITY.

WIZ001-002-006>008-014>016-023>028-211500-
NORTHWEST WISCONSIN

CITY           SKY/WX    TMP DP  RH WIND       PRES   REMARKS
SUPERIOR ARPT  CLOUDY    60  60  99 NE9       29.89F FOG
ASHLAND        CLOUDY    63  61  93 NE5       29.94F
HAYWARD        LGT RAIN  63  62  97 NE3       29.89F
SIREN          LGT RAIN  65  64  96 E5        29.83F
RICE LAKE      TSTM      64  63  96 E9        29.88F
LADYSMITH      RAIN      64  63  94 E8        29.90F
EAU CLAIRE     RAIN      67  67 100 S8        29.86F FOG
MENOMONIE      CLOUDY    67  67  99 CALM      29.80F
NEW RICHMOND   CLOUDY    67  67 100 SE7       29.82F
OSCEOLA        CLOUDY    68  68 100 E6        29.84R
$$

WIZ003>005-009-010-017-018-211500-
NORTH CENTRAL WISCONSIN

CITY           SKY/WX    TMP DP  RH WIND       PRES   REMARKS
WOODRUFF       CLOUDY    65  63  91 SE6       29.96F
RHINELANDER    CLOUDY    62  61  96 E9        29.97F
EAGLE RIVER    CLOUDY    65  62  90 E6        29.96F
LAND O LAKES   CLOUDY    64  61  90 S5        30.00F
PHILLIPS       CLOUDY    62  61  97 E6        29.90F
TOMAHAWK       CLOUDY    61  60  97 CALM      29.96F FOG
MEDFORD        CLOUDY    62  62  99 E7        29.93F
MERRILL        CLOUDY    63  63 100 E3        29.95F FOG
$$

WIZ029-030-035-036-043>047-211500-
CENTRAL WISCONSIN

CITY           SKY/WX    TMP DP  RH WIND       PRES   REMARKS
WAUSAU         CLOUDY    64  63  96 E9        29.92F FOG
MOSINEE        FOG       63  63 100 E3        29.96F VSB 1
MARSHFIELD     LGT RAIN  64  63  96 SE8       29.93R FOG
STEVENS POINT  RAIN      64  62  96 E6        29.94F
WAUPACA        CLOUDY    68  66  95 E5        29.95S FOG
WAUTOMA        LGT RAIN  66  65  97 CALM      29.94F FOG
WISC RAPIDS    LGT RAIN  65  64  97 SE3       29.94S FOG
CAMP DOUGLAS   LGT RAIN  66  66 100 SE7       29.92R
$$

WIZ011>013-019>022-031-037>040-048>050-211500-
NORTHEAST WISCONSIN

CITY           SKY/WX    TMP DP  RH WIND       PRES   REMARKS
ANTIGO         CLOUDY    63  63 100 SE7       29.98S FOG
STURGEON BAY   PTSUNNY   64  63  94 SE9       29.98F
GREEN BAY      PTSUNNY   70  63  78 SE7       29.96F
MANITOWOC      PTSUNNY   68  65  90 SE9       29.98S
APPLETON       PTSUNNY   68  63  83 SE9       29.96S
CLINTONVILLE   CLOUDY    64  63  94 E6        29.96S
OSHKOSH        PTSUNNY   69  63  81 E7        29.94S
$$

WIZ032>034-041-042-053>061-211500-
SOUTHWEST WISCONSIN

CITY           SKY/WX    TMP DP  RH WIND       PRES   REMARKS
LA CROSSE      LGT RAIN  71  68  90 SE9       29.90R
SPARTA         RAIN      68  66  94 E5        29.92R
VIROQUA        CLOUDY    67  67 100 CALM      29.94R
BOSCOBEL       CLOUDY    72  68  87 CALM      29.90R
PRAIRIE DU CHI CLOUDY    71  67  88 CALM      29.90R
PLATTEVILLE    FAIR      70  68  94 SE12      29.93R
$$

WIZ056-057-062-063-064-067-068-211500-
SOUTH CENTRAL WISCONSIN

CITY           SKY/WX    TMP DP  RH WIND       PRES   REMARKS
BARABOO/DELLS  CLOUDY    68  65  92 CALM      29.92S
LONE ROCK      CLOUDY    74  69  85 E8        29.91R
WATERTOWN      CLOUDY    69  68  96 E3        29.92F
MADISON        TSTM      71  67  87 SW9       29.95R
MIDDLETON      PTSUNNY   71  70  96 SW9       29.95R
MONROE         TSTM      68  68 100 S6        29.95R
JANESVILLE     SUNNY     70  68  94 CALM      29.92S
$$

WIZ051-052-058>065-066-070>072-211500-
SOUTHEAST WISCONSIN

CITY           SKY/WX    TMP DP  RH WIND       PRES   REMARKS
MILWAUKEE      PTSUNNY   73  66  78 SW6       29.95F
WAUKESHA       PTSUNNY   68  64  88 SE3       29.97S
MILWAUKEE/TIMM PTSUNNY   72  64  78 S3        29.97S
RACINE         PTSUNNY   74  67  78 SW7       29.98S
BURLINGTON     PTSUNNY   70  67  91 CALM      29.94F
KENOSHA        CLOUDY    73  69  87 SW5       29.96F
FOND DU LAC    PTSUNNY   70  64  81 S8        29.94F
SHEBOYGAN      MOSUNNY   69  63  81 SE7       29.97S
WEST BEND      CLOUDY    68  63  83 CALM      29.96F FOG
JUNEAU         CLOUDY    68  41  37 SE5       29.95F
$$

LSZ147-162-211500-
LAKE SUPERIOR

STATION/POSITION TIME  TEMP    WIND        PRES    WAVE
                       AIR SEA DIR/SP/G            HT/PER
                 (UTC) (F)     (DEG/KT/KT) (MB)    (FT/S)
W MID LAKE BUOY  1350   57 58   80/ 10/ 12 1014.2R   0
DEVILS ISLAND    1200   61      80/ 12/ 13 1013.7F
PORT WING        1340   65      80/  3/  4 1013.2F
SAXON HARBOR     1340   63        CALM     1013.5F
$$

LMZ867-665-643>646-211500-
LAKE MICHIGAN

STATION/POSITION TIME  TEMP    WIND        PRES    WAVE
                       AIR SEA DIR/SP/G            HT/PER
                 (UTC) (F)     (DEG/KT/KT) (MB)    (FT/S)
N MID LAKE BUOY  1350   63 64  130/  6/  6 1015.5R   0
NORTHPORT PIER   1300   65      80/  3/  3 1015.2R
ALGOMA LAKESHORE 1208             CALM       N/A
KEWAUNEE LAKESHO 1400   66     100/  4/  6 1014.4R
SHEBOYGAN LAKESH 1400   66 66  100/  5/  5 1014.8F
ATWATER BUOY     1400   69     130/  8/  8 1015.4F
MILWAUKEE LAKESH 1400   69     100/  5/  5   N/A
S MID LAKE BUOY  1350   69 68  190/  4/  6 1015.3R   0
KENOSHA   LAKESH 1400   74     240/  7/ 10 1013.9F
$$

TC  - TEMPERATURE IN CELSIUS
VSB - VISIBILITY IN STATUTE MILES
WCI - WIND CHILL INDEX
HX  - HEAT INDEX



USA.gov is the U.S. government's official web portal to all federal, state and local government web resources and services.